Regional Weather Roundup
Issued by NWS Sterling, VA

Home | Current Version | Previous Version | Text Only | Print | Product List | Glossary On
Versions: 1 2 3 4 5 6 7 8 9 10 11 12 13 14 15 16 17 18 19 20 21 22 23 24 25 26 27 28 29 30 31 32 33 34 35 36 37 38 39 40 41 42 43 44 45 46 47 48 49 50
000
ASUS41 KLWX 290411
RWRLWX

REGIONAL WEATHER ROUNDUP
NATIONAL WEATHER SERVICE BALTIMORE MD/WASHINGTON DC
1200 AM EDT FRI JUL 29 2016

Note: "FAIR" indicates few or no clouds below 12,000 feet
with no significant weather and/or obstructions to visibility.
 TC=TEMPERATURE CELSIUS

 * =Non NWS site. Station does not report precipitation (e.g. rain,
    snow, etc.), thunder, or fog.

DCZ001-MDZ009-015-VAZ040>042-051-053>054-290500-
WASHINGTON METRO

CITY           SKY/WX    TMP DP  RH WIND       PRES   REMARKS
WASHINGTON NAT LGT RAIN  77  75  93 E6        29.84F FOG
DULLES         LGT RAIN  75  73  93 N6        29.85R
FT BELVOIR     MOCLDY    76  74  94 CALM      29.84R
QUANTICO       MOCLDY    78  75  90 N7        29.84R
LEESBURG*      RAIN      75  75 100 NE8       29.88R
MANASSAS*      MOCLDY    75  73  94 N3        29.85S
GAITHERSBURG*  CLOUDY    73  70  88 CALM      29.91R

$$

MDZ006>007-011-014-290500-
BALTIMORE METRO

CITY           SKY/WX    TMP DP  RH WIND       PRES   REMARKS
BWI AIRPORT    RAIN      75  74  96 CALM      29.85S FOG
MD SCIENCE CTR   N/A     75  73  93 MISG      29.85R
MARTIN STATE   LGT RAIN  75  75 100 CALM      29.85R
ANNAPOLIS      LGT RAIN  77  75  93 NW7       29.86R
FORT MEADE*    CLOUDY    73  72  94 CALM      29.88R

$$

MDZ012-015-019>023-290500-
MARYLAND EASTERN SHORE

CITY           SKY/WX    TMP DP  RH WIND       PRES   REMARKS
OCEAN CITY       N/A    N/A N/A N/A MISG      29.84F
SALISBURY      NOT AVBL
BAY BRIDGE AP* CLOUDY    75  73  94 E5        29.84S
CAMBRIDGE*     CLOUDY    72  72 100 NE6       29.83F
EASTON*        DRIZZLE   75  75 100 CALM      29.90R

$$

MDZ017>025-290500-
SOUTHERN MARYLAND

CITY           SKY/WX    TMP DP  RH WIND       PRES   REMARKS
PATUXENT RIVER CLOUDY    75  72  90 SE7       29.82F THUNDER
ST INIGOES     CLOUDY    76  74  93 SE7       29.81F THUNDER
LEONARDTOWN*   CLOUDY    73  72  94 CALM      29.84S

$$

MDZ003>005-290500-
NORTH CENTRAL MARYLAND

CITY           SKY/WX    TMP DP  RH WIND       PRES   REMARKS
FREDERICK*     CLOUDY    73  73 100 CALM      29.89S
HAGERSTOWN APT LGT RAIN  71  68  90 N7        29.89S FOG

$$

MDZ501>502-290500-
WESTERN MARYLAND

CITY           SKY/WX    TMP DP  RH WIND       PRES   REMARKS
OAKLAND*         N/A     63  63 100 CALM      30.00S FOG
CUMBERLAND*    CLOUDY    70  70 100 CALM      29.95S

$$

VAZ025>031-290500-
SHENANDOAH VALLEY

CITY           SKY/WX    TMP DP  RH WIND       PRES   REMARKS
WINCHESTER*    HVY RAIN  72  70  94 N5        29.88S
FRONT ROYAL*   CLOUDY    70  70 100 CALM      29.88R
LURAY*         CLOUDY   N/A N/A N/A NE6       29.89S
NEW MARKET*    CLOUDY   N/A N/A N/A N7        29.88S
STAUNTON*      LGT RAIN  71  69  92 N3        29.93R
WAYNESBORO*    CLOUDY    71  69  93 N6        29.92R

$$

WVZ021-048>050-054>055-290500-
EASTERN WEST VIRGINIA PANHANDLE

CITY           SKY/WX    TMP DP  RH WIND       PRES   REMARKS
MARTINSBURG    CLOUDY    72  70  93 N7        29.88S FOG
PETERSBURG*    HVY RAIN  70  69  97 CALM      29.92S

$$

VAZ036>039-050-290500-
CENTRAL FOOTHILLS

CITY           SKY/WX    TMP DP  RH WIND       PRES   REMARKS
CHARLOTTESVILL CLOUDY    76  69  79 E5        29.87R
CULPEPER*      MOCLDY    73  73 100 N3        29.85F FOG
ORANGE*          N/A     73  73 100 CALM      29.87S
GORDONSVILLE*  CLOUDY    73  72  97 N5        29.85S
WARRENTON*     DRIZZLE   75  70  84 N5        29.84S

$$

VAZ055>057-290500-
NORTH AND CENTRAL PIEDMONT

CITY           SKY/WX    TMP DP  RH WIND       PRES   REMARKS
FREDERICKSBRG* CLOUDY    76  76 100 CALM      29.83R
STAFFORD*      CLOUDY    74  73  94 CALM      29.87S

$$

NCZ024-NYZ072-PAZ021-071-VAZ022-071-290500-
OTHER REGIONAL OBSERVATIONS

CITY           SKY/WX    TMP DP  RH WIND       PRES   REMARKS
NEW YORK CITY  CLOUDY    77  70  79 CALM      29.90F HAZE
PHILADELPHIA   LGT RAIN  76  73  91 SE7       29.86F
PITTSBURGH     MOCLDY    69  66  90 CALM      29.93R
ROANOKE        CLOUDY    74  71  91 VRB5      29.92F
RICHMOND       CLOUDY    75  74  96 E8        29.82F
RALEIGH        CLEAR     82  70  66 SW9       29.87R

$$

ANZ530>537-290500-
MARINE OBSERVATIONS

STATION/POSITION TIME  TEMP    WIND        PRES
                       AIR SEA DIR/SP/G
                 (UTC) (F)     (DEG/KT/KT) (MB)
THOMAS PT LIGHT  0400   77 85   70/  6/  7 1012.1R
BALT KEY BRIDGE  0342   76      90/  4/  5 1010.4
COVE POINT       0342   78     160/ 11/ 14 1010.7
LEWISETTA        0342   77 87  140/ 15/ 17 1009.7
SOLOMONS ISLAND  0342   77 86  120/  7/ 10   N/A
PINEY POINT      0342          180/ 16/ 17   N/A

$$




USA.gov is the U.S. government's official web portal to all federal, state and local government web resources and services.